| time (UTC) | temp C | wind direction | speed KPH | gust KPH | rain 1hr cm | rain 24hr cm | rain mn cm | humidity % | barometer mb |
| 20260504000029 | 15 | 192 | 6.4 | 11.3 | 0.00 | 0.00 | 0.00 | 57 | 1010.3 |
| 20260503235527 | 15 | 171 | 6.4 | 9.7 | 0.00 | 0.00 | 0.00 | 57 | 1010.1 |
| 20260503235023 | 15 | 223 | 1.6 | 6.4 | 0.00 | 0.00 | 0.00 | 59 | 1010.2 |
| 20260503234521 | 15 | 158 | 4.8 | 11.3 | 0.00 | 0.00 | 0.00 | 58 | 1010.2 |
| 20260503234019 | 15 | 198 | 11.3 | 11.3 | 0.00 | 0.00 | 0.00 | 59 | 1010.1 |
| 20260503233515 | 15 | 202 | 9.7 | 11.3 | 0.00 | 0.00 | 0.00 | 58 | 1010.1 |
| 20260503233011 | 15 | 203 | 14.5 | 14.5 | 0.00 | 0.00 | 0.00 | 58 | 1010.3 |
| 20260503232508 | 15 | 188 | 14.5 | 14.5 | 0.00 | 0.00 | 0.00 | 58 | 1010.2 |
| 20260503232006 | 15 | 186 | 14.5 | 17.7 | 0.00 | 0.00 | 0.00 | 58 | 1010.3 |
| 20260503231504 | 15 | 155 | 8.0 | 9.7 | 0.00 | 0.00 | 0.00 | 58 | 1010.4 |
| 20260503231000 | 15 | 243 | 8.0 | 12.9 | 0.00 | 0.00 | 0.00 | 57 | 1010.3 |
| 20260503230456 | 16 | 174 | 6.4 | 6.4 | 0.00 | 0.00 | 0.00 | 56 | 1010.3 |
| 20260503225954 | 16 | 209 | 3.2 | 12.9 | 0.00 | 0.00 | 0.00 | 57 | 1010.2 |
| 20260503225451 | 15 | 156 | 6.4 | 14.5 | 0.00 | 0.00 | 0.00 | 57 | 1010.3 |
| 20260503224946 | 15 | 204 | 6.4 | 11.3 | 0.00 | 0.00 | 0.00 | 56 | 1010.4 |
| 20260503224443 | 15 | 216 | 9.7 | 11.3 | 0.00 | 0.00 | 0.00 | 55 | 1010.6 |
| 20260503223941 | 15 | 284 | 8.0 | 12.9 | 0.00 | 0.00 | 0.00 | 56 | 1010.7 |
| 20260503223439 | 15 | 204 | 8.0 | 14.5 | 0.00 | 0.00 | 0.00 | 55 | 1010.9 |
| 20260503222934 | 15 | 228 | 6.4 | 22.5 | 0.00 | 0.00 | 0.00 | 53 | 1010.7 |
| 20260503222433 | 15 | 213 | 6.4 | 14.5 | 0.00 | 0.00 | 0.00 | 53 | 1010.5 |
| 20260503221931 | 15 | 183 | 9.7 | 11.3 | 0.00 | 0.00 | 0.00 | 54 | 1010.4 |
| 20260503221429 | 15 | 183 | 9.7 | 14.5 | 0.00 | 0.00 | 0.00 | 52 | 1010.7 |
| 20260503220925 | 15 | 198 | 14.5 | 20.9 | 0.00 | 0.00 | 0.00 | 53 | 1010.7 |
| 20260503220421 | 15 | 197 | 12.9 | 16.1 | 0.00 | 0.00 | 0.00 | 52 | 1010.7 |
| 20260503215919 | 15 | 223 | 9.7 | 17.7 | 0.00 | 0.00 | 0.00 | 52 | 1010.8 |
| 20260503215416 | 15 | 133 | 17.7 | 22.5 | 0.00 | 0.00 | 0.00 | 51 | 1010.8 |
| 20260503214913 | 16 | 182 | 11.3 | 17.7 | 0.00 | 0.00 | 0.00 | 52 | 1010.6 |
| 20260503214411 | 15 | 200 | 8.0 | 22.5 | 0.00 | 0.00 | 0.00 | 52 | 1010.5 |
| 20260503213908 | 15 | 221 | 9.7 | 16.1 | 0.00 | 0.00 | 0.00 | 52 | 1010.7 |
| 20260503213406 | 15 | 190 | 14.5 | 24.1 | 0.00 | 0.00 | 0.00 | 52 | 1010.5 |
| 20260503212902 | 15 | 166 | 19.3 | 25.7 | 0.00 | 0.00 | 0.00 | 52 | 1010.8 |
| 20260503212400 | 16 | 166 | 8.0 | 20.9 | 0.00 | 0.00 | 0.00 | 53 | 1010.6 |
| 20260503211857 | 16 | 199 | 17.7 | 25.7 | 0.00 | 0.00 | 0.00 | 50 | 1011.0 |
| 20260503211354 | 16 | 240 | 19.3 | 22.5 | 0.00 | 0.00 | 0.00 | 50 | 1011.4 |
| 20260503210848 | 16 | 211 | 14.5 | 25.7 | 0.00 | 0.00 | 0.00 | 51 | 1011.4 |
| 20260503210346 | 16 | 182 | 9.7 | 27.4 | 0.00 | 0.00 | 0.00 | 51 | 1011.3 |
| 20260503205841 | 16 | 259 | 16.1 | 35.4 | 0.00 | 0.00 | 0.00 | 51 | 1011.4 |
| 20260503205338 | 16 | 250 | 20.9 | 25.7 | 0.00 | 0.00 | 0.00 | 50 | 1011.7 |
| 20260503204834 | 16 | 201 | 9.7 | 17.7 | 0.00 | 0.00 | 0.00 | 51 | 1012.1 |
| 20260503204332 | 16 | 207 | 3.2 | 6.4 | 0.00 | 0.00 | 0.00 | 51 | 1012.0 |
| 20260503203829 | 16 | 178 | 16.1 | 27.4 | 0.00 | 0.00 | 0.00 | 49 | 1012.1 |
| 20260503203326 | 16 | 184 | 14.5 | 20.9 | 0.00 | 0.00 | 0.00 | 49 | 1011.7 |
| 20260503202823 | 16 | 190 | 14.5 | 20.9 | 0.00 | 0.00 | 0.00 | 48 | 1012.0 |
| 20260503202321 | 16 | 190 | 17.7 | 20.9 | 0.00 | 0.00 | 0.00 | 48 | 1012.1 |
| 20260503201819 | 16 | 223 | 19.3 | 29.0 | 0.00 | 0.00 | 0.00 | 49 | 1012.4 |
| 20260503201316 | 16 | 157 | 11.3 | 41.8 | 0.00 | 0.00 | 0.00 | 50 | 1012.6 |
| 20260503200814 | 17 | 228 | 17.7 | 25.7 | 0.00 | 0.00 | 0.00 | 48 | 1013.1 |
| 20260503200309 | 16 | 218 | 11.3 | 22.5 | 0.00 | 0.00 | 0.00 | 50 | 1012.5 |
| 20260503195807 | 16 | 193 | 17.7 | 22.5 | 0.00 | 0.00 | 0.00 | 48 | 1013.1 |
| 20260503195304 | 16 | 189 | 9.7 | 17.7 | 0.00 | 0.00 | 0.00 | 49 | 1013.4 |
| 20260503194800 | 15 | 223 | 11.3 | 16.1 | 0.00 | 0.00 | 0.00 | 49 | 1013.8 |
| 20260503194256 | 15 | 246 | 14.5 | 17.7 | 0.00 | 0.00 | 0.00 | 49 | 1014.2 |
| 20260503193753 | 15 | 221 | 11.3 | 25.7 | 0.00 | 0.00 | 0.00 | 49 | 1014.4 |
| 20260503193249 | 15 | 222 | 6.4 | 22.5 | 0.00 | 0.00 | 0.00 | 50 | 1014.3 |
| 20260503192745 | 16 | 263 | 17.7 | 25.7 | 0.00 | 0.00 | 0.00 | 48 | 1014.6 |
| 20260503192240 | 16 | 248 | 11.3 | 27.4 | 0.00 | 0.00 | 0.00 | 48 | 1014.5 |
| 20260503191737 | 16 | 214 | 14.5 | 29.0 | 0.00 | 0.00 | 0.00 | 48 | 1014.6 |
| 20260503191234 | 15 | 214 | 17.7 | 24.1 | 0.00 | 0.00 | 0.00 | 48 | 1014.5 |
| 20260503190731 | 15 | 198 | 20.9 | 27.4 | 0.00 | 0.00 | 0.00 | 47 | 1014.4 |
| 20260503190227 | 15 | 211 | 25.7 | 30.6 | 0.00 | 0.00 | 0.00 | 47 | 1014.6 |
| 20260503185725 | 15 | 249 | 14.5 | 33.8 | 0.00 | 0.00 | 0.00 | 48 | 1014.7 |
| 20260503185220 | 15 | 253 | 14.5 | 22.5 | 0.00 | 0.00 | 0.00 | 47 | 1014.7 |
| 20260503184715 | 16 | 239 | 14.5 | 25.7 | 0.00 | 0.00 | 0.00 | 48 | 1014.6 |
| 20260503184211 | 16 | 200 | 24.1 | 30.6 | 0.00 | 0.00 | 0.00 | 46 | 1014.5 |
| 20260503183708 | 16 | 228 | 17.7 | 25.7 | 0.00 | 0.00 | 0.00 | 48 | 1014.5 |
| 20260503183205 | 16 | 279 | 11.3 | 22.5 | 0.00 | 0.00 | 0.00 | 47 | 1014.5 |
| 20260503182704 | 16 | 224 | 6.4 | 16.1 | 0.00 | 0.00 | 0.00 | 50 | 1014.5 |
| 20260503182202 | 15 | 237 | 16.1 | 22.5 | 0.00 | 0.00 | 0.00 | 49 | 1014.9 |
| 20260503181658 | 16 | 221 | 16.1 | 30.6 | 0.00 | 0.00 | 0.00 | 49 | 1014.8 |
| 20260503181155 | 16 | 239 | 19.3 | 29.0 | 0.00 | 0.00 | 0.00 | 49 | 1015.1 |
| 20260503180651 | 16 | 237 | 14.5 | 20.9 | 0.00 | 0.00 | 0.00 | 47 | 1014.8 |
| 20260503180150 | 16 | 215 | 9.7 | 24.1 | 0.00 | 0.00 | 0.00 | 52 | 1015.2 |
| 20260503175647 | 16 | 170 | 9.7 | 17.7 | 0.00 | 0.00 | 0.00 | 51 | 1015.3 |
| 20260503175144 | 16 | 185 | 14.5 | 20.9 | 0.00 | 0.00 | 0.00 | 48 | 1015.6 |
| 20260503174640 | 16 | 189 | 12.9 | 25.7 | 0.00 | 0.00 | 0.00 | 48 | 1015.5 |
| 20260503174137 | 15 | 169 | 14.5 | 24.1 | 0.00 | 0.00 | 0.00 | 50 | 1015.8 |
| 20260503173632 | 15 | 239 | 19.3 | 24.1 | 0.00 | 0.00 | 0.00 | 50 | 1016.0 |
| 20260503173129 | 15 | 252 | 11.3 | 20.9 | 0.00 | 0.00 | 0.00 | 53 | 1016.0 |
| 20260503172626 | 15 | 202 | 17.7 | 27.4 | 0.00 | 0.00 | 0.00 | 52 | 1016.3 |
| 20260503172124 | 16 | 213 | 22.5 | 25.7 | 0.00 | 0.00 | 0.00 | 50 | 1016.1 |
| 20260503171620 | 15 | 204 | 14.5 | 24.1 | 0.00 | 0.00 | 0.00 | 50 | 1016.3 |
| 20260503171117 | 16 | 251 | 17.7 | 25.7 | 0.00 | 0.00 | 0.00 | 52 | 1016.5 |
| 20260503170614 | 15 | 241 | 8.0 | 22.5 | 0.00 | 0.00 | 0.00 | 52 | 1016.3 |
| 20260503170111 | 15 | 221 | 11.3 | 16.1 | 0.00 | 0.00 | 0.00 | 52 | 1016.6 |
| 20260503151006 | 13 | 254 | 9.7 | 14.5 | 0.00 | 0.00 | 0.00 | 58 | 1018.1 |
| 20260503150502 | 12 | 197 | 8.0 | 16.1 | 0.00 | 0.00 | 0.00 | 59 | 1018.2 |
| 20260503131355 | 8 | 212 | 6.4 | 11.3 | 0.00 | 0.00 | 0.00 | 71 | 1018.6 |
| 20260503130853 | 8 | 177 | 9.7 | 11.3 | 0.00 | 0.00 | 0.00 | 70 | 1018.4 |
| 20260503130350 | 8 | 197 | 9.7 | 12.9 | 0.00 | 0.00 | 0.00 | 71 | 1018.6 |
| 20260503110744 | 3 | 228 | 0.0 | 4.8 | 0.00 | 0.00 | 0.00 | 82 | 1018.1 |
| 20260503110241 | 3 | 259 | 1.6 | 3.2 | 0.00 | 0.00 | 0.00 | 83 | 1018.1 |
| 20260503100207 | 3 | 259 | 0.0 | 0.0 | 0.00 | 0.00 | 0.00 | 84 | 1018.0 |
| 20260503090131 | 3 | 239 | 1.6 | 1.6 | 0.00 | 0.00 | 0.00 | 82 | 1018.2 |
| 20260503081602 | 3 | 275 | 0.0 | 0.0 | 0.00 | 0.00 | 0.00 | 83 | 1018.1 |
| 20260503081059 | 3 | 206 | 0.0 | 0.0 | 0.00 | 0.00 | 0.00 | 83 | 1018.1 |
| 20260503080554 | 3 | 229 | 0.0 | 0.0 | 0.00 | 0.00 | 0.00 | 83 | 1018.2 |
| 20260503072528 | 2 | 255 | 0.0 | 0.0 | 0.00 | 0.00 | 0.00 | 87 | 1018.2 |
| 20260503072026 | 2 | 226 | 0.0 | 0.0 | 0.00 | 0.00 | 0.00 | 86 | 1018.2 |
| 20260503071522 | 2 | 274 | 0.0 | 0.0 | 0.00 | 0.00 | 0.00 | 87 | 1018.2 |
| 20260503071019 | 2 | 260 | 0.0 | 0.0 | 0.00 | 0.00 | 0.00 | 85 | 1018.3 |
| 20260503070516 | 2 | 248 | 0.0 | 0.0 | 0.00 | 0.00 | 0.00 | 88 | 1018.4 |
| 20260503054939 | 2 | 57 | 0.0 | 0.0 | 0.00 | 0.00 | 0.00 | 96 | 1018.7 |
| 20260503054436 | 2 | 57 | 0.0 | 0.0 | 0.00 | 0.00 | 0.00 | 96 | 1018.6 |
| 20260503053933 | 2 | 57 | 0.0 | 0.0 | 0.00 | 0.00 | 0.00 | 96 | 1018.7 |
| 20260503053431 | 2 | 57 | 0.0 | 0.0 | 0.00 | 0.00 | 0.00 | 95 | 1018.7 |
| 20260503052927 | 2 | 57 | 0.0 | 0.0 | 0.00 | 0.00 | 0.00 | 95 | 1018.7 |
| 20260503052425 | 2 | 57 | 0.0 | 0.0 | 0.00 | 0.00 | 0.00 | 95 | 1018.6 |
| 20260503051921 | 2 | 57 | 0.0 | 0.0 | 0.00 | 0.00 | 0.00 | 95 | 1018.7 |
| 20260503051417 | 2 | 57 | 0.0 | 0.0 | 0.00 | 0.00 | 0.00 | 95 | 1018.6 |
| 20260503050914 | 2 | 57 | 0.0 | 0.0 | 0.00 | 0.00 | 0.00 | 95 | 1018.6 |
| 20260503050410 | 2 | 57 | 0.0 | 0.0 | 0.00 | 0.00 | 0.00 | 94 | 1018.8 |
| 20260503045908 | 2 | 57 | 0.0 | 0.0 | 0.00 | 0.00 | 0.00 | 95 | 1018.7 |
| 20260503045405 | 2 | 57 | 0.0 | 0.0 | 0.00 | 0.00 | 0.00 | 94 | 1018.8 |
| 20260503044902 | 2 | 54 | 0.0 | 0.0 | 0.00 | 0.00 | 0.00 | 93 | 1018.7 |
| 20260503044359 | 2 | 18 | 0.0 | 0.0 | 0.00 | 0.00 | 0.00 | 93 | 1018.7 |
| 20260503043856 | 2 | 18 | 0.0 | 0.0 | 0.00 | 0.00 | 0.00 | 93 | 1018.8 |
| 20260503043353 | 2 | 18 | 0.0 | 0.0 | 0.00 | 0.00 | 0.00 | 92 | 1018.9 |
| 20260503042849 | 2 | 15 | 0.0 | 0.0 | 0.00 | 0.00 | 0.00 | 91 | 1018.8 |
| 20260503042346 | 2 | 15 | 0.0 | 0.0 | 0.00 | 0.00 | 0.00 | 91 | 1018.7 |
| 20260503041842 | 2 | 4 | 0.0 | 0.0 | 0.00 | 0.00 | 0.00 | 90 | 1018.8 |
| 20260503041339 | 2 | 325 | 0.0 | 0.0 | 0.00 | 0.00 | 0.00 | 91 | 1018.8 |
| 20260503040837 | 2 | 325 | 0.0 | 0.0 | 0.00 | 0.00 | 0.00 | 89 | 1018.7 |
| 20260503040334 | 2 | 325 | 0.0 | 0.0 | 0.00 | 0.00 | 0.00 | 89 | 1018.8 |
| 20260503035831 | 3 | 325 | 0.0 | 0.0 | 0.00 | 0.00 | 0.00 | 89 | 1019.0 |
| 20260503035328 | 3 | 325 | 0.0 | 0.0 | 0.00 | 0.00 | 0.00 | 90 | 1018.9 |
| 20260503034825 | 3 | 321 | 0.0 | 0.0 | 0.00 | 0.00 | 0.00 | 89 | 1018.9 |
| 20260503034323 | 3 | 321 | 0.0 | 0.0 | 0.00 | 0.00 | 0.00 | 89 | 1019.0 |
| 20260503033820 | 3 | 321 | 0.0 | 0.0 | 0.00 | 0.00 | 0.00 | 90 | 1018.8 |
| 20260503033317 | 3 | 321 | 0.0 | 0.0 | 0.00 | 0.00 | 0.00 | 90 | 1018.9 |
| 20260503032815 | 3 | 321 | 0.0 | 0.0 | 0.00 | 0.00 | 0.00 | 89 | 1018.7 |
| 20260503032314 | 3 | 321 | 0.0 | 0.0 | 0.00 | 0.00 | 0.00 | 89 | 1018.7 |
| 20260503031811 | 3 | 321 | 0.0 | 0.0 | 0.00 | 0.00 | 0.00 | 87 | 1018.9 |
| 20260503031309 | 3 | 321 | 0.0 | 0.0 | 0.00 | 0.00 | 0.00 | 87 | 1018.7 |
| 20260503030804 | 3 | 321 | 0.0 | 0.0 | 0.00 | 0.00 | 0.00 | 87 | 1018.8 |
| 20260503030301 | 3 | 321 | 0.0 | 0.0 | 0.00 | 0.00 | 0.00 | 87 | 1018.7 |
| 20260503025758 | 3 | 321 | 0.0 | 0.0 | 0.00 | 0.00 | 0.00 | 86 | 1019.0 |
| 20260503025255 | 4 | 321 | 0.0 | 0.0 | 0.00 | 0.00 | 0.00 | 89 | 1018.9 |
| 20260503024752 | 4 | 321 | 0.0 | 0.0 | 0.00 | 0.00 | 0.00 | 88 | 1018.8 |
| 20260503024249 | 4 | 321 | 0.0 | 0.0 | 0.00 | 0.00 | 0.00 | 87 | 1018.9 |
| 20260503023746 | 4 | 321 | 0.0 | 0.0 | 0.00 | 0.00 | 0.00 | 87 | 1018.8 |
| 20260503023243 | 4 | 321 | 0.0 | 0.0 | 0.00 | 0.00 | 0.00 | 87 | 1018.8 |
| 20260503022739 | 4 | 321 | 0.0 | 0.0 | 0.00 | 0.00 | 0.00 | 84 | 1018.7 |
| 20260503022239 | 5 | 321 | 0.0 | 0.0 | 0.00 | 0.00 | 0.00 | 84 | 1018.8 |
| 20260503021736 | 5 | 321 | 0.0 | 0.0 | 0.00 | 0.00 | 0.00 | 82 | 1018.6 |
| 20260503021232 | 5 | 321 | 0.0 | 0.0 | 0.00 | 0.00 | 0.00 | 81 | 1018.5 |
| 20260503020730 | 5 | 321 | 0.0 | 0.0 | 0.00 | 0.00 | 0.00 | 81 | 1018.7 |
| 20260503020228 | 5 | 321 | 0.0 | 0.0 | 0.00 | 0.00 | 0.00 | 79 | 1018.8 |
| 20260503015724 | 5 | 321 | 0.0 | 0.0 | 0.00 | 0.00 | 0.00 | 76 | 1018.8 |
| 20260503015221 | 5 | 321 | 0.0 | 0.0 | 0.00 | 0.00 | 0.00 | 76 | 1018.5 |
| 20260503014717 | 6 | 321 | 0.0 | 0.0 | 0.00 | 0.00 | 0.00 | 74 | 1018.5 |
| 20260503014215 | 6 | 321 | 0.0 | 0.0 | 0.00 | 0.00 | 0.00 | 73 | 1018.5 |
| 20260503013712 | 6 | 321 | 0.0 | 0.0 | 0.00 | 0.00 | 0.00 | 72 | 1018.3 |
| 20260503013210 | 6 | 321 | 0.0 | 0.0 | 0.00 | 0.00 | 0.00 | 71 | 1018.2 |
| 20260503012707 | 6 | 321 | 0.0 | 0.0 | 0.00 | 0.00 | 0.00 | 72 | 1018.3 |
| 20260503012204 | 6 | 321 | 0.0 | 0.0 | 0.00 | 0.00 | 0.00 | 71 | 1018.3 |
| 20260503011700 | 7 | 321 | 0.0 | 0.0 | 0.00 | 0.00 | 0.00 | 70 | 1018.3 |
| 20260503011157 | 7 | 321 | 0.0 | 0.0 | 0.00 | 0.00 | 0.00 | 66 | 1018.4 |
| 20260503010653 | 7 | 332 | 0.0 | 0.0 | 0.00 | 0.00 | 0.00 | 68 | 1018.1 |
| 20260503010151 | 7 | 332 | 0.0 | 0.0 | 0.00 | 0.00 | 0.00 | 67 | 1018.2 |
| 20260503005648 | 8 | 333 | 0.0 | 0.0 | 0.00 | 0.00 | 0.00 | 68 | 1018.2 |
| 20260503005145 | 8 | 333 | 0.0 | 0.0 | 0.00 | 0.00 | 0.00 | 62 | 1018.2 |
| 20260503004641 | 8 | 333 | 0.0 | 0.0 | 0.00 | 0.00 | 0.00 | 58 | 1018.2 |
| 20260503004140 | 8 | 332 | 0.0 | 0.0 | 0.00 | 0.00 | 0.00 | 54 | 1018.3 |
| 20260503003636 | -17 | 0.0 | 0.0 | 0.00 | 0.00 | 0.00 | 1018.1 | ||
| 20260503003133 | -17 | 0.0 | 0.0 | 0.00 | 0.00 | 0.00 | 1018.1 | ||
| 20260503002630 | 11 | 338 | 0.0 | 0.0 | 0.00 | 0.00 | 0.00 | 46 | 1018.0 |
| 20260503002127 | 11 | 338 | 0.0 | 0.0 | 0.00 | 0.00 | 0.00 | 46 | 1017.9 |
| 20260503001623 | 11 | 5 | 0.0 | 0.0 | 0.00 | 0.00 | 0.00 | 45 | 1018.1 |
| 20260503001120 | 11 | 350 | 3.2 | 3.2 | 0.00 | 0.00 | 0.00 | 44 | 1018.2 |
| 20260503000618 | 11 | 22 | 0.0 | 0.0 | 0.00 | 0.00 | 0.00 | 46 | 1018.0 |